#timestamp,LO_Frequency,Hit,StdDev 
1584414015.8,286046998.6,P
1584414035.7,286047000.2,N
1584414055.5,286046999.7,N
1584414075.3,286047003.8,N
1584414095.2,286047003.7,N
1584414115.0,286047003.3,N
1584414115.9,286047003.3,N
1584414135.8,286047004.3,N
1584414155.6,286046999.7,N
1584414175.4,286047002.6,N
1584414195.3,286047002.8,N
1584414215.1,286047002.7,N
1584414235.9,286046999.8,N
1584414255.7,286046999.9,N
1584414275.5,286047000.6,N
1584414295.4,286047002.6,N
1584414315.2,286047004.0,N
1584414335.0,286047004.2,N
1584414335.9,286047004.2,N
1584414355.8,286047003.8,N
1584414375.6,286047004.0,N
1584414395.5,286047001.5,N
1584414415.3,286047001.5,N
1584414435.1,286047004.3,N
1584414455.9,286047001.4,N
1584414475.7,286047002.5,N
1584414495.6,286047002.2,N
1584414515.4,286046999.7,N
1584414535.2,286047002.5,N
1584414555.1,286047000.6,N
1584414556.0,286047000.6,N
1584414575.8,286047000.2,N
1584414595.7,286047000.9,N
1584414615.5,286047000.4,N
1584414635.3,286047002.7,N
1584414655.2,286047002.8,N
1584414675.0,286047000.9,N
1584414675.9,286047000.9,N
1584414695.8,286046999.6,N
1584414715.6,286046998.7,N
1584414735.4,286046999.0,N
1584414755.3,286046999.2,N
1584414775.1,286046996.6,N
1584414795.8,286046999.0,N
1584414815.7,286046999.0,N
1584414835.5,286046998.4,N
1584414855.4,286047002.4,N
1584414875.2,286046998.5,N
1584414895.0,286046998.5,N
1584414895.9,286046998.5,N
1584414915.8,286046999.4,N
1584414935.6,286046998.5,N
1584414955.5,286047000.7,N
1584414975.3,286046999.1,N
1584414995.1,286047000.8,N
1584415015.9,286047001.0,N
1584415035.7,286046998.9,N
1584415055.5,286046998.4,N
1584415075.4,286046998.4,N
1584415095.2,286046998.5,N
1584415115.1,286047001.1,N
1584415116.0,286047001.1,N
1584415135.8,286046998.9,N
1584415155.6,286046998.7,N
1584415175.5,286047000.1,N
1584415195.3,286047000.8,N
1584415215.1,286047000.2,N
1584415235.9,286046999.8,N
1584415255.7,286047000.4,N
1584415275.6,286046997.5,N
1584415295.4,286046991.9,Y
1584415315.2,286046994.9,P
1584415335.1,286046998.9,N
1584415336.0,286046998.9,N
1584415355.8,286046997.1,N
1584415375.7,286046998.6,N
1584415395.5,286046998.6,N
1584415415.3,286047002.7,N
1584415435.2,286047001.5,N
1584415455.0,286047002.5,N
1584415455.9,286047002.5,N
1584415475.8,286047003.9,N
1584415495.6,286047004.0,N
1584415515.4,286047001.9,N
1584415535.3,286047000.4,N
1584415555.1,286046998.8,N
1584415575.8,286046999.4,N
1584415595.7,286046998.4,N
1584415615.5,286047002.0,N
1584415635.4,286047000.1,N
1584415655.2,286047000.4,N
1584415675.0,286047002.8,N
1584415675.9,286047002.8,N
1584415695.8,286047003.9,N
1584415715.6,286047005.9,N
1584415735.5,286047003.3,N
1584415755.3,286047003.9,N
1584415775.1,286047003.7,N
1584415795.9,286047001.9,N
1584415815.7,286046999.8,N
1584415835.5,286047001.6,N
1584415855.4,286047003.3,N
1584415875.2,286047001.8,N
1584415895.1,286047001.8,N
1584415896.0,286047001.8,N
1584415915.8,286047002.1,N
1584415935.6,286047001.7,N
1584415955.5,286047005.6,Y
1584415975.3,286047001.6,P
1584415995.2,286047000.1,N
1584416015.9,286047001.8,N
1584416035.7,286047001.6,N
1584416055.6,286047001.7,N
1584416075.4,286047001.6,N
1584416095.2,286047002.3,Y
1584416115.1,286047003.8,P
1584416116.0,286047003.8,P
1584416135.8,286047004.4,P
1584416155.7,286047001.4,N
1584416175.5,286047004.3,Y
1584416195.3,286047000.7,P
1584416215.2,286047000.7,N
1584416235.0,286046999.9,N
1584416235.9,286046999.9,N
1584416255.8,286047000.9,N
1584416275.6,286046997.5,N
1584416295.4,286046997.7,N
1584416315.3,286046998.3,N
1584416335.1,286047000.5,N
1584416355.9,286047000.6,N
1584416375.7,286047000.4,N
1584416395.5,286047000.5,N
1584416415.4,286046997.3,N
1584416435.2,286046998.6,N
1584416455.0,286046998.4,N
1584416455.9,286046998.4,N
1584416475.8,286047000.6,N
1584416495.6,286047000.3,N
1584416515.5,286047001.7,N
1584416535.3,286047002.5,N
1584416555.1,286047000.9,N
1584416575.9,286046998.4,N
1584416595.7,286046996.9,N
1584416615.5,286046999.2,N
1584416635.4,286046998.1,N
1584416655.2,286047000.7,N
1584416675.1,286047000.0,N
1584416676.0,286047000.0,N
1584416695.8,286047001.1,N
1584416715.6,286047000.9,N
1584416735.5,286047001.0,N
1584416755.3,286047000.6,N
1584416775.2,286047002.7,N
1584416795.9,286046999.8,N
1584416815.7,286046999.9,N
1584416835.6,286046998.1,N
1584416855.4,286046998.5,N
1584416875.2,286047000.6,N
1584416895.1,286046999.0,N
1584416896.0,286046999.0,N
1584416915.8,286046999.4,N
1584416935.7,286046998.7,N
1584416955.5,286046995.2,Y
1584416975.3,286046997.7,P
1584416995.2,286046997.7,N
1584417015.0,286046999.1,N
1584417015.9,286046999.1,N
1584417035.8,286046997.4,Y
1584417055.6,286046998.4,P
1584417075.4,286047003.8,P
1584417095.3,286047003.5,N
1584417115.1,286047003.7,N
1584417135.9,286047003.3,N
1584417155.7,286047005.6,N
1584417175.5,286047003.7,N
1584417195.4,286047003.7,N
1584417215.2,286047001.4,N
1584417235.0,286047003.9,N
1584417235.9,286047003.9,N
1584417255.8,286046999.8,N
1584417275.6,286047003.8,N
1584417295.5,286047003.5,N
1584417315.3,286047003.1,N
1584417335.1,286047006.0,N
1584417355.9,286047004.0,N
1584417375.7,286047001.6,N
1584417395.5,286047001.9,N
1584417415.4,286047000.8,N
1584417435.2,286046996.7,N
1584417455.1,286046998.5,N
1584417456.0,286046998.5,N
1584417475.8,286047000.7,N
1584417495.6,286046999.8,N
1584417515.5,286047004.3,N
1584417535.3,286047002.4,N
1584417555.2,286047001.9,N
1584417575.9,286047004.1,N
1584417595.7,286047001.8,N
